TIME,DELAY(SENSOR),PRES,OXYGEN,RAWTEMP,T(OPTODE),TCPHASE,FLUOR,BETA(BETA700),BETA(BETA412),BETA(BETA440),CDOM,C(CSC),ED(ED411.90),ED(ED443.80),ED(ED489.40),ED(ED554.70),LU(LU412.20),LU(LU443.80),LU(LU489.40),LU(LU555.00),COMP,TILTX,TILTY,CHECK
1372027271,5807,870.9000244140625000,155.0075988769531200,404.1209106445312500,10.4770498275756840,39.4287681579589840,52,100,93,79,79,10374,2146960310,2147518153,2147281956,2147493284,2147088091,2146933549,2147697051,2147123209,2644,-1,8,11747
1372030867,5806,976.2100219726562000,167.9324035644531200,479.3169860839844000,8.1697740554809570,39.6949501037597660,51,97,100,78,81,10375,2146961033,2147516480,2147292489,2147508672,2147086692,2146920246,2147711085,2147122176,3061,-1,8,61456
1372034467,5805,982.6699829101562000,176.0287933349609400,490.5205078125000000,7.8232908248901370,39.3081703186035160,52,99,94,79,80,10376,2146965888,2147517275,2147290642,2147507931,2147087442,2146921938,2147712036,2147120795,3270,-1,8,32527
1372038067,5803,988.9000244140625000,184.6764984130859400,491.4065856933594000,7.7958531379699710,38.7337989807128900,52,100,93,79,80,10374,2146962368,2147519360,2147292891,2147509494,2147088219,2146918400,2147711926,2147118985,3331,-1,8,20703
1372041667,5805,989.6199951171875000,176.3802947998047000,493.0137939453125000,7.7460727691650390,39.3268013000488300,52,99,95,79,81,10367,2146962349,2147516242,2147290203,2147513947,2147088576,2146916909,2147714578,2147121152,627,-1,8,39090
1372045267,5806,993.5000000000000000,186.2967071533203000,494.1413879394531000,7.7111392021179200,38.6722908020019500,52,100,94,77,80,10371,2146962075,2147516141,2147294729,2147509632,2147088009,2146918372,2147717513,2147120009,721,-1,8,45912
1372048867,5808,993.8699951171875000,179.9398040771484400,495.0925903320312500,7.6816630363464355,39.1170692443847660,52,98,93,79,80,10370,2146959168,2147511917,2147298313,2147510235,2147086912,2146922752,2147714029,2147121654,816,-1,8,22866
1372052467,5805,1000.2399902343750000,172.8215942382812500,494.7434997558594000,7.6924781799316410,39.6065101623535160,52,97,94,79,80,10368,2146959268,2147517302,2147295067,2147509650,2147089600,2146922432,2147710683,2147123026,3377,-1,8,33483
1372056067,5805,997.7100219726562000,162.0762023925781200,494.7314147949219000,7.6928529739379880,40.3921394348144500,52,97,93,78,80,10367,2146963017,2147516754,2147294482,2147510253,2147088237,2146920566,2147710628,2147120868,3215,-1,8,40559
1372059667,5804,998.7600097656250000,171.2028961181640600,494.7398071289062500,7.6925950050354000,39.7229995727539060,52,96,94,79,81,10369,2146962971,2147515501,2147295424,2147510363,2147085184,2146920530,2147714066,2147121005,3376,-1,8,11578
1372063267,5807,999.0300292968750000,186.8041992187500000,495.1662902832031000,7.6793770790100100,38.6573791503906250,52,99,94,78,81,10369,2146963008,2147517961,2147295497,2147509494,2147088466,2146918710,2147715346,2147119917,668,-1,8,61563
1372066867,5806,1003.8900146484375000,187.3751983642578000,495.1477966308594000,7.6799502372741700,38.6195716857910160,52,96,94,78,79,10368,2146964763,2147518281,2147294628,2147510080,2147087040,2146917860,2147714898,2147121746,3358,-1,8,44342
1372070467,5805,1005.8099975585938000,188.8887023925781200,494.0295104980469000,7.7146039009094240,38.5000801086425800,52,98,93,79,80,10364,2146962706,2147514944,2147295113,2147509129,2147086189,2146923392,2147709814,2147122112,3153,-1,8,50531
1372074067,5803,1002.9299926757812000,178.4107055664062500,495.3067932128906000,7.6750240325927730,39.2262802124023440,52,105,95,79,80,10366,2146963008,2147518765,2147292781,2147510098,2147087433,2146911360,2147714523,2147120237,3471,-1,8,17464
1372077667,5805,1001.8699951171875000,189.2218933105468800,496.1245117187500000,7.6496767997741700,38.5151786804199200,52,97,94,78,80,10368,2146963657,2147514267,2147295186,2147510400,2147085293,2146919424,2147715675,2147120722,3267,-1,8,60870
1372081267,5806,996.4500122070312000,184.5590057373047000,497.5002136230469000,7.6070261001586910,38.8467216491699200,52,99,93,78,79,10361,2146963163,2147518080,2147295789,2147513243,2147088594,2146916873,2147712758,2147119213,191,-1,8,12872
1372084867,5804,995.5700073242188000,190.0388946533203000,499.8062133789062500,7.5355057716369630,38.5266609191894500,52,99,94,78,80,10356,2146965019,2147516452,2147294226,2147511222,2147087716,2146918537,2147713892,2147121563,3465,-1,8,37734
1372088467,5806,1000.5499877929688000,194.4497070312500000,498.3198852539062500,7.5816059112548830,38.2176399230957000,52,98,94,79,80,10361,2146962880,2147516480,2147293769,2147508754,2147087936,2146921627,2147713051,2147122505,7,-1,8,21320
1372092067,5804,1004.9400024414062000,190.0115966796875000,496.7894897460937500,7.6290640830993650,38.4758796691894500,52,103,95,78,81,10357,2146962258,2147517513,2147293933,2147509056,2147085769,2146915684,2147715172,2147123465,667,-1,8,1916
1372095667,5810,1003.0399780273438000,189.2978973388672000,497.5488891601562500,7.6055159568786620,38.5351295471191400,53,99,94,78,80,10357,2146964800,2147519012,2147298541,2147507574,2147090331,2146916662,2147717449,2147119689,3569,-1,8,12996
1372099267,5805,999.5200195312500000,189.4203948974609400,498.1554870605469000,7.5867061614990230,38.5375709533691400,51,97,95,79,80,10355,2146964114,2147519195,2147297435,2147511058,2147085184,2146920000,2147715108,2147120128,305,-1,8,51552
1372102867,5806,999.0700073242188000,191.8200073242187500,500.0589904785156000,7.5276618003845215,38.4151306152343750,52,98,94,79,79,10351,2146961974,2147516489,2147297490,2147512301,2147087643,2146920932,2147715053,2147118738,5,0,8,21781
1372106467,5807,1003.4500122070312000,184.4839935302734400,499.3389892578125000,7.5499978065490720,38.8834686279296900,51,96,94,80,80,10355,2146961938,2147523172,2147296237,2147510573,2147084946,2146919396,2147713179,2147121874,3035,-1,8,54181
1372110067,5806,1004.3300170898438000,185.6459045410156200,499.3232116699219000,7.5504899024963380,38.8060913085937500,52,97,94,78,79,10355,2146962468,2147515026,2147295689,2147512630,2147086573,2146920548,2147715099,2147120438,3172,-1,8,65392
1372113667,5806,1002.1500244140625000,186.7590942382812500,498.3985900878906000,7.5791649818420410,38.7161788940429700,52,104,94,78,81,10353,2146960521,2147516553,2147296621,2147512713,2147088859,2146923163,2147713654,2147116370,3373,-1,8,37050
1372117267,5806,1000.5700073242188000,183.6376037597656200,499.8411865234375000,7.5344200134277340,38.9498405456543000,51,96,93,79,81,10350,2146961654,2147519442,2147295762,2147511250,2147085403,2146921728,2147707949,2147117686,163,-1,8,4710
1372120867,5805,1002.7299804687500000,193.6826019287109400,499.3865051269531000,7.5485248565673830,38.2842597961425800,52,113,98,78,80,10346,2146962432,2147518500,2147295003,2147509586,2147084864,2146918656,2147717979,2147119881,2907,-1,8,2415
1372124467,5804,1001.2700195312500000,194.9615020751953000,499.9129943847656000,7.5321941375732420,38.2124099731445300,52,97,94,79,81,10354,2146960594,2147517988,2147295725,2147511213,2147084333,2146923776,2147714998,2147121755,2586,-1,8,61655
1372128067,5806,1003.4199829101562000,196.0939941406250000,500.1080017089844000,7.5261430740356445,38.1444702148437500,53,101,96,78,80,10353,2146961344,2147512521,2147294500,2147509988,2147088393,2146922029,2147716187,2147118930,2853,-1,8,37200
1372131667,5806,1002.4600219726562000,196.2958984375000000,500.6799926757812500,7.5083961486816410,38.1415405273437500,51,97,94,79,80,10352,2146961837,2147518683,2147297773,2147512320,2147082294,2146919040,2147715053,2147119734,3333,-1,8,14660
1372135267,5807,1002.7399902343750000,197.0075073242187500,501.7380065917969000,7.4755630493164060,38.1149787902832000,52,98,94,78,80,10351,2146958729,2147515986,2147297005,2147512402,2147085037,2146920768,2147717019,2147123666,426,-1,8,52574
1372138867,5806,1004.7100219726562000,195.3359069824218800,499.5533142089844000,7.5433511734008790,38.1822395324707000,51,98,93,82,78,10353,2146959689,2147517915,2147297472,2147507995,2147087926,2146924315,2147716598,2147121508,3148,-1,8,63519
1372142467,5807,1010.9799804687500000,196.8818054199218800,499.0863952636719000,7.5578360557556150,38.0772705078125000,52,99,94,78,81,10349,2146965613,2147518244,2147296420,2147512877,2147087030,2146922240,2147714395,2147121837,3062,-1,8,33502
1372146067,5805,1010.2899780273438000,194.4335021972656200,498.2059020996094000,7.5851440429687500,38.2166404724121100,52,95,93,79,80,10346,2146963940,2147517906,2147295753,2147508251,2147087177,2146920320,2147714386,2147119360,2927,-1,8,30840
1372149667,5807,1005.4199829101562000,193.7545013427734400,498.6109924316406000,7.5725808143615720,38.2656288146972660,52,99,93,81,80,10343,2146963264,2147517229,2147297115,2147511497,2147086043,2146920960,2147713133,2147121664,528,-1,8,42615
1372153267,5806,1008.4000244140625000,194.9512939453125000,498.8219909667969000,7.5660338401794430,38.1938209533691400,52,100,95,79,79,10342,2146961152,2147515328,2147296146,2147509970,2147084434,2146920795,2147716306,2147121965,3256,-1,8,3913
1372156867,5805,1007.5900268554688000,191.8466033935547000,499.0768127441406000,7.5581312179565430,38.3966407775878900,52,100,95,79,81,10340,2146963318,2147518198,2147296036,2147512969,2147085504,2146920521,2147714011,2147121554,3565,-1,8,64985
1372160467,5807,1008.2500000000000000,192.0594940185547000,499.1293029785156000,7.5565028190612790,38.3834991455078100,51,98,94,80,80,10344,2146962148,2147515008,2147295734,2147512228,2147086262,2146922139,2147716489,2147121444,3585,-1,8,65161
1372164067,5803,1006.7999877929688000,193.9971008300781200,499.6958007812500000,7.5389299392700195,38.2700309753418000,50,100,95,79,80,10336,2146960960,2147517476,2147296082,2147511497,2147087515,2146918765,2147718656,2147121536,2880,-1,8,19884
1372167667,5805,1006.6799926757812000,192.7209014892578000,499.4844055175781000,7.5454888343811035,38.3470916748046900,51,98,94,79,80,10342,2146965010,2147514733,2147296420,2147507547,2147084845,2146923245,2147720521,2147124662,3156,-1,8,27504
1372170355,5806,1006.7100219726562000,195.1201019287109400,499.3724975585937500,7.5489611625671390,38.1926689147949200,52,101,95,79,81,10336,2146965321,2147519094,2147297792,2147509302,2147087204,2146919222,2147716525,2147121124,447,-1,8,36847
